Location: *
(46.1866°S, 178.5290°W)
Time: 09:42:05
(UTC+00:00)

Cosmos 1461 - Pass Details

Date: 05 October 2021
Orbit: 520 x 642 km, 65.0° (Epoch: 20 October)

Event Time Altitude Azimuth Distance (km) Brightness Sun altitude
Rises 07:58:05 0° 304° (NW) 2,739 6.7 -18.9°
Reaches altitude 10° 08:00:21 10° 296° (WNW) 1,870 6.0 -19.2°
Maximum altitude 08:04:19 39° 226° (SW) 885 4.4 -19.8°
Drops below altitude 10° 08:08:30 10° 156° (SSE) 1,964 5.7 -20.4°
Sets 08:10:56 0° 148° (SSE) 2,895 6.5 -20.8°
